hermine

Hermine Rains & Wind Clipping Eastern Long Island

Hermine Rains & Wind Clipping Eastern Long Island

comfort

 Hermine Rains & Wind Clipping Eastern Long Island

Most Of The Rain Passing East & South

Hermine To Weaken Next 3 Days

hermine

We have been watching the satellite loops and the radars all evening and you can see below on the loops that while some weak bands of rain have crossed Eastern Long Island most of the action is to the south and east. Hermine is moving steadily WNW at 10 mph or so and it will probably begin to weaken on Tuesday. Winds have been gusting around as well along coastal Connecticut and over Central & Eastern Long Island. We have seen some gusts to gale force at a number of reporting stations.The Southeast Coast of Connecticut seems to be getting some particularly strong winds with gusts above 40 mph.

CITY           SKY/WX    TMP DP  RH WIND       PRES   REMARKS
Central Park   MOCLDY    79  57  46 N7        30.03R
LaGuardia APRT MOCLDY    80  60  50 N15       29.99R
Kennedy INTL   MOCLDY    79  60  52 N18G28    29.99R
Newark/Liberty CLOUDY    80  57  45 N17       30.00R
Bronx Bot Gard   N/A     77  59  53 E3        30.01F
Wall St Helipt MOCLDY    79  61  53 SW6       30.00R
Teterboro      MOCLDY    79  56  45 N9        30.00R
$$

NYZ177-179-078>081-060200-
LONG ISLAND NEW YORK

CITY           SKY/WX    TMP DP  RH WIND       PRES   REMARKS
Farmingdale    CLOUDY    76  58  53 N15G22    29.97S
MacArthur/ISP  CLOUDY    77  54  44 N18G28    29.94F
Shirley        CLOUDY    76  52  43 N16G28    29.95S
Riverhead      NOT AVBL
Westhampton    CLOUDY    75  50  41 N17G33    29.95R
Southampton      N/A     72  52  49 NE18      29.88F
Bridgehampton  NOT AVBL
East Hampton   CLOUDY    70  50  49 N20G30    29.92F
Montauk          N/A     67  57  70 N24G39    29.91F
$$

NYZ052-065-067-060200-
HUDSON VALLEY

CITY           SKY/WX    TMP DP  RH WIND       PRES   REMARKS
White Plains   CLOUDY    75  56  51 NW12      30.01R
Newburgh       CLEAR     73  61  64 N8        30.07
Montgomery     CLOUDY    73  56  54 N6        30.06R
Poughkeepsie   CLEAR     72  60  66 N5        30.04R
Albany         MOCLDY    72  58  61 N5        30.09S
$$

NJZ001-105-106-008-010-013-015-019>022-104-060200-
NEW JERSEY

CITY           SKY/WX    TMP DP  RH WIND       PRES   REMARKS
Newark/Liberty CLOUDY    80  57  45 N17       30.00R
Teterboro      MOCLDY    79  56  45 N9        30.00R
Caldwell       CLOUDY    77  58  51 VRB5      30.03S
Morristown     MOCLDY    75  57  53 N9        30.03S
Somerville     CLOUDY    74  62  66 NW6       30.02R
Linden         FAIR      80  55  42 N9G17     30.03R
Sussex         CLEAR     70  59  68 CALM      30.07R
Abdover          N/A     65  63  93 CALM      30.07R
Trenton        PTCLDY    75  60  59 N7        30.02S
Millville      MOCLDY    72  67  84 W9        30.03S
Atlantic City  CLOUDY    74  61  63 W8        30.01S
Wrightstown    PTCLDY    73  61  67 NW8       29.99S
Toms River     PTCLDY    75  61  61 NW7       30.00S
Belmar         CLOUDY    76  60  57 NW12      30.00S
$$

PAZ047>061-062-071-060200-
EASTERN PENNSYLVANIA

CITY           SKY/WX    TMP DP  RH WIND       PRES   REMARKS
Philadelphia   MOCLDY    82  58  43 NW9       30.03S
Allentown      PTCLDY    75  58  55 NW6       30.06S
Scranton       CLEAR     71  60  68 E5        30.12R
$$

CTZ002-004>006-009-010-012-RIZ004-006-007-MAZ004-011-015-060200-
SOUTHERN NEW ENGLAND
 IN CT

CITY           SKY/WX    TMP DP  RH WIND       PRES   REMARKS
Bradley INTL   MOCLDY    75  51  43 N17G25    30.04R
Hartford       CLOUDY    78  52  40 N17G28    30.01R
Danbury        MOCLDY    75  55  49 N12       30.04S
Wtrbury/Oxford PTCLDY    73  52  46 NE16G28   30.04S
Bridgeport     CLOUDY    79  53  40 N18G26    29.98R
Meriden        MOCLDY    78  51  38 N14G29    30.00R
New Haven      MOCLDY    77  48  35 N21G32    29.97R
Chester        CLOUDY    73  48  40 N14G24    29.99S
Groton         MOCLDY    71  48  43 N29G43    29.93F
Wilimantic     CLOUDY    71  49  45 N20G29    30.02S

storm free

storm free

Other than the areas mentioned above the rain will not move into New Jersey, the Hudson Valley, Western Connecticut or even Western Long Island.



storm free

With Hermine offshore Tuesday and Wednesday the big question will be how much cloud cover and how far west do the clouds get I think from just inland of the coast north and northwest there will be more sun than clouds while along the coast the clouds will be stubborn. That will create a wide spread in temperatures..from mid 70s where it is cloudy to mid 80s where it is at least partly sunny. This will be the case Tuesday and Wednesday. Assuming Hermine is gone on Thursday. we should see hot and humid weather into Friday with temperatures reaching the upper 80s and lower 90s. Right now the weekend looks warm with temperatures in the 80s. The next chance for showers or thunderstorms could come late Sunday.

FiOS1 News Weather Forecast For Long Island

NATIONAL WEATHER SERVICE SNOW FORECASTS

JOIN JOESTRADAMUS ON YOUTUBE!

LATEST JOESTRADAMUS ON THE LONG RANGE

LONG ISLAND WEATHER

NEW YORK WEATHER

MARINE WEATHER

 

Weather App

storm free

Don’t be without Meteorologist Joe Cioffi’s weather app. It is really a meteorologist app because you get my forecasts and my analysis and not some automated computer generated forecast based on the GFS model. This is why your app forecast changes every 6 hours. It is model driven with no human input at all. It gives you an icon, a temperature and no insight whatsoever.

It is a complete weather app to suit your forecast needs. All the weather information you need is right on your phone. Android or I-phone, use it to keep track of all the latest weather information and forecasts. This weather app is also free of advertising so you don’t have to worry about security issues with your device. An accurate forecast and no worries that your device is being compromised.

Use it in conjunction with my website and my facebook and twitter and you have complete weather coverage of all the latest weather and the long range outlook. The website has been redone and upgraded. Its easy to use and everything is archived so you can see how well Joe does or doesn’t do when it comes to forecasts and outlooks.

Just click on the google play button or the apple store button on the sidebar for my app which is on My Weather Concierge. Download the app for free. Subscribe to my forecasts on an ad free environment for just 99 cents a month.
Get my forecasts in the palm of your hand for less than the cost of a cup of Joe!

 

googleplay

 

 


storm free

http://www.fragalalandscape.com/

MENTION JOE CIOFFI AND GET A 5% DISCOUNT

 

 


Liked it? Take a second to support joestradamus on Patreon!